sat.trackr.live / text

‹ back to catalog

NETSAT-3

NORAD 46505 · 2020-068V

PAYLOAD ACTIVE UNKNOWN

§ Identity

Operator
Country
GER
Launch date
2020-09-28
Launch site
PLMSC
Launch vehicle
Mass (kg)
RCS (m²)

Purposes: tech_demo

External: N2YO · Heavens-Above · Gunter

§ Orbital elements

Epoch: 2026-09-19T23:57:42.744096Z

Period
93.16 min
Inclination
97.8671°
Eccentricity
0.0004847
Mean motion
15.45678643 rev/d
Perigee alt
426.1 km
Apogee alt
432.7 km
Semi-major
6,807.5 km
B*
2.9255e-4
RAAN
277.1899°
Arg perigee
22.5096°
Mean anomaly
337.6363°
Rev number
33,031

§ Raw data

NETSAT-31 46505U 20068V   26262.99841139  .00014028  00000+0  29255-3 0  99982 46505  97.8671 277.1899 0004847  22.5096 337.6363 15.45678643330310

JSON: /api/v1/satellites/46505 · /tle

For live sub-satellite position, see the globe view (requires WebGL).

§ Visibility from observer

Set your observer location to see the next 7 days of passes ≥ 10°. The values pass through the URL so the page stays shareable.

No JS? Fill the form by hand. The geolocation button needs JavaScript.

§ Radio — SatNOGS DB

ModeDescriptionDownlinkUplink
FSK AX.25 G3RUH Telemetry 435.600 MHz

1 transmitter · refreshed weekly from db.satnogs.org